Simultaneous Nadir Overpasses (SNOs) Predictions

Prediction of SNOs between METOP-B and NOAA-19 Satellite Orbit:

Table of predicted SNOs for the next 14.0 days since TLE Epoch: 12/17/2023
Index Date (METOP-B) Time (METOP-B) Lat,Lon (METOP-B) SZA (METOP-B ) Date (NOAA-19) Time (NOAA-19) Lat,Lon (NOAA-19) SZA (NOAA-19 ) Distance(km) Time Diff (sec)
1 12/26/2023 03:44:40 -80.48, -29.91 75.27 12/26/2023 03:43:32 -80.48, -30.07 75.31 3.20 68
2 12/26/2023 04:35:20 80.49, 137.55 104.75 12/26/2023 04:34:27 80.50, 137.61 104.74 1.28 53
3 12/26/2023 05:26:00 -80.52, -54.78 75.21 12/26/2023 05:25:28 -80.52, -54.70 75.21 1.45 32
4 12/26/2023 06:16:40 80.53, 112.68 104.81 12/26/2023 06:16:24 80.53, 112.64 104.80 0.73 16
5 12/26/2023 07:07:20 -80.55, -79.64 75.15 12/26/2023 07:07:25 -80.55, -79.66 75.15 0.58 5
6 12/26/2023 07:58:00 80.56, 87.82 104.87 12/26/2023 07:58:21 80.55, 87.68 104.86 2.71 21
7 12/26/2023 08:48:41 -80.56,-104.84 75.13 12/26/2023 08:49:23 -80.56,-104.96 75.13 2.37 42



Historial Predications of SNOs between METOP-B and NOAA-19
